Flag for U.S.A. Weather past 2 weeks in Green Bay, Wisconsin, U.S.A.

Now
18 °F

Clear.


Feels Like: 18 °F
Forecast: 17 / 29 °F
Wind: No wind

Location: Austin Straubel International Airport

Current Time: Dec 19, 2014 at 7:04:23 AM

Latest Report: Dec 19, 2014 at 5:53 AM


Visibility: 10 mi

Pressure: 30.33 "Hg

Humidity: 84%

Dew point: 14 °F

Location of Green BayLocation

Historic Weather in Green Bay — Graph

°F

Green Bay temperature yesterday

Maximum temperature yesterday: 29 °F (at 1:53 PM)
Minimum temperature yesterday: 19 °F (at 10:53 PM)
Average temperature yesterday: 25 °F

Past Weeks' High & Low Weather Summary

 TemperatureHumidityPressure
High44 °F (Dec 15, 1:00 PM)100% (Dec 13, 5:53 AM)30.74 "Hg (Dec 13, 5:53 AM)
Low11 °F (Dec 4, 5:53 AM)53% (Dec 4, 1:53 PM)29.67 "Hg (Dec 16, 3:02 AM)
Average29 °F87%30.21 "Hg
* Reported Dec 4 5:53 AM — Dec 19 5:53 AM, Green Bay, Weather by CustomWeather, © 2014

Note: Actual official high and low records may vary slightly from our data, if they occured in-between our weather recording intervals... More about our weather records

Advertising

Green Bay weather history for previous 24 hours

 ConditionsComfort  
Time TempWeatherWind HumidityBarometerVisibility
5:53 AM
Dec 19
18 °FClear.No wind84%30.33 "Hg10 mi
4:53 AM17 °FClear.No wind92%30.32 "Hg9 mi
3:53 AM18 °FClear.No wind88%30.31 "Hg9 mi
2:53 AM18 °FClear.No wind92%30.32 "Hg8 mi
1:53 AM18 °FClear.No wind88%30.31 "Hg9 mi
12:53 AM20 °FClear.5 mph89%30.30 "Hg9 mi
11:53 PM
Dec 18
20 °FClear.3 mph92%30.29 "Hg9 mi
10:53 PM19 °FClear.No wind92%30.31 "Hg9 mi
9:53 PM20 °FClear.No wind89%30.29 "Hg7 mi
8:53 PM20 °FClear.No wind92%30.29 "Hg9 mi
7:53 PM20 °FClear.3 mph92%30.30 "Hg9 mi
6:53 PM22 °FClear.No wind89%30.29 "Hg10 mi
5:53 PM22 °FClear.No wind89%30.29 "Hg10 mi
4:53 PM25 °FClear.No wind85%30.28 "Hg10 mi
3:53 PM27 °FSunny.3 mph75%30.27 "Hg10 mi
2:53 PM28 °FSunny.No wind69%30.27 "Hg10 mi
1:53 PM29 °FOvercast.8 mph72%30.27 "Hg10 mi
12:53 PM28 °FOvercast.7 mph72%30.28 "Hg10 mi
11:53 AM28 °FOvercast.7 mph75%30.29 "Hg10 mi
10:53 AM28 °FOvercast.7 mph75%30.31 "Hg10 mi
9:53 AM28 °FOvercast.9 mph75%30.32 "Hg10 mi
8:53 AM27 °FOvercast.7 mph75%30.31 "Hg10 mi
7:53 AM26 °FOvercast.12 mph77%30.30 "Hg10 mi
Weather by CustomWeather, © 2014

See weather overviewHow to use our weather pages